Temp
-18 -18 -18 -17 -17 -17 -16 -16 -15 -15 -15 -14 -14 -15 -15 -15 -15 -14 -14 -15 -15 -15 -15 -15 -16 -16 -16 -16 -17 -16 -16 -15 -16 -15 -15 -15 -15 -15 -14 -14 -14 -13 -13
-18 -18 -18 -17 -17 -17 -16 -16 -16 -15 -15 -15 -15 -15 -15 -15 -15 -15 -15 -15 -15 -15 -16 -15 -16 -16 -16 -16 -16 -16 -16 -16 -15 -15 -15 -15 -15 -14 -14 -14 -14 -14 -14
-18 -18 -18 -17 -17 -17 -17 -16 -16 -15 -15 -15 -15 -15 -15 -15 -15 -15 -15 -15 -15 -15 -16 -16 -15 -16 -15 -16 -16 -15 -15 -15 -15 -14 -14 -14 -14 -14 -14 -14 -14 -14 -14
-18 -18 -18 -17 -17 -17 -17 -16 -16 -15 -15 -15 -15 -15 -15 -15 -15 -15 -15 -15 -15 -15 -15 -15 -15 -15 -16 -15 -15 -15 -15 -14 -15 -15 -15 -15 -15 -15 -14 -14 -14 -14 -14
-18 -18 -18 -18 -18 -18 -17 -17 -16 -16 -16 -15 -15 -15 -16 -15 -15 -15 -15 -15 -15 -14 -14 -15 -15 -15 -15 -15 -15 -15 -15 -15 -15 -14 -14 -15 -15 -15 -15 -15 -15 -15 -15
-18 -19 -19 -19 -18 -18 -17 -17 -16 -16 -16 -15 -16 -16 -16 -16 -16 -15 -15 -15 -15 -14 -15 -15 -13 -15 -15 -15 -15 -14 -14 -14 -14 -14 -14 -15 -15 -15 -15 -15 -15 -15 -15
-18 -18 -18 -18 -18 -18 -17 -17 -16 -16 -16 -16 -16 -16 -16 -16 -15 -15 -15 -15 -15 -15 -15 -15 -15 -15 -15 -15 -15 -15 -15 -14 -14 -14 -15 -15 -15 -15 -15 -15 -15 -15 -15
-19 -19 -19 -18 -18 -18 -17 -17 -17 -17 -16 -17 -16 -16 -16 -15 -15 -15 -15 -15 -15 -15 -15 -15 -15 -15 -15 -15 -15 -15 -15 -14 -14 -15 -15 -15 -15 -15 -15 -15 -15 -15 -15
-21 -22 -21 -21 -20 -20 -20 -19 -19 -18 -18 -17 -17 -17 -16 -16 -16 -16 -15 -15 -15 -15 -15 -15 -15 -15 -15 -15 -15 -15 -15 -15 -15 -15 -15 -15 -16 -15 -15 -15 -15 -15 -15
-23 -23 -22 -22 -21 -21 -21 -21 -20 -20 -19 -18 -18 -17 -17 -16 -16 -16 -16 -16 -15 -15 -15 -15 -15 -15 -15 -15 -15 -15 -16 -15 -15 -14 -14 -15 -16 -16 -15 -15 -15 -15 -15
-23 -22 -22 -22 -22 -22 -22 -21 -22 -21 -20 -19 -18 -18 -17 -17 -16 -16 -16 -16 -15 -15 -15 -15 -15 -15 -14 -15 -15 -15 -15 -15 -15 -15 -15 -15 -16 -16 -16 -15 -15 -15 -15
-23 -23 -23 -24 -23 -23 -23 -23 -23 -23 -23 -22 -21 -20 -19 -18 -17 -16 -16 -16 -16 -15 -16 -16 -16 -16 -16 -15 -15 -15 -15 -15 -15 -16 -16 -15 -16 -16 -16 -16 -15 -15 -15
-24 -24 -24 -23 -23 -23 -23 -23 -22 -23 -23 -23 -22 -22 -22 -21 -20 -18 -18 -17 -16 -16 -16 -16 -16 -16 -16 -16 -16 -16 -16 -16 -16 -16 -16 -16 -16 -16 -16 -16 -15 -15 -15
-24 -24 -24 -24 -24 -23 -23 -23 -23 -22 -22 -22 -21 -21 -21 -21 -21 -21 -21 -20 -19 -18 -17 -16 -16 -16 -16 -16 -16 -16 -16 -16 -16 -16 -16 -16 -16 -16 -16 -16 -16 -16 -16
-24 -24 -24 -24 -24 -24 -24 -23 -23 -23 -23 -22 -22 -22 -21 -21 -21 -20 -20 -20 -21 -21 -20 -19 -18 -18 -17 -17 -16 -16 -16 -16 -16 -16 -16 -16 -16 -16 -16 -16 -16 -16 -16
-24 -24 -24 -24 -24 -24 -23 -23 -23 -23 -23 -22 -22 -22 -22 -21 -21 -21 -21 -20 -20 -20 -20 -21 -20 -20 -19 -19 -18 -17 -17 -17 -17 -17 -17 -16 -16 -16 -17 -17 -17 -17 -17
-24 -24 -24 -24 -24 -24 -23 -23 -23 -23 -22 -22 -22 -22 -22 -22 -22 -21 -21 -21 -21 -21 -21 -21 -21 -20 -20 -20 -20 -19 -19 -18 -18 -18 -17 -17 -17 -17 -17 -17 -17 -17 -17
-24 -24 -24 -24 -24 -24 -24 -23 -23 -23 -22 -22 -22 -22 -22 -22 -22 -21 -22 -22 -21 -21 -21 -21 -21 -21 -21 -20 -20 -20 -20 -19 -19 -19 -18 -18 -18 -18 -17 -17 -17 -17 -18
-24 -24 -24 -24 -24 -23 -23 -23 -22 -22 -22 -22 -22 -22 -22 -22 -21 -21 -21 -22 -22 -22 -21 -21 -21 -21 -21 -21 -21 -21 -21 -20 -20 -19 -19 -19 -19 -19 -19 -18 -18 -18 -18
-24 -24 -24 -24 -23 -23 -23 -22 -22 -22 -22 -22 -22 -22 -22 -22 -22 -22 -22 -21 -21 -22 -22 -21 -21 -21 -21 -21 -21 -21 -21 -21 -21 -21 -20 -20 -19 -19 -19 -20 -20 -19 -19
-24 -24 -23 -23 -23 -23 -22 -22 -22 -22 -23 -23 -23 -23 -23 -23 -23 -23 -23 -23 -23 -22 -22 -22 -22 -21 -21 -21 -21 -21 -21 -21 -22 -22 -22 -22 -21 -21 -21 -20 -20 -20 -20
-24 -24 -23 -23 -23 -23 -23 -23 -23 -23 -23 -23 -23 -23 -24 -24 -24 -24 -24 -24 -24 -24 -24 -24 -25 -25 -24 -23 -22 -22 -21 -21 -21 -22 -22 -22 -22 -22 -22 -22 -22 -21 -21
-24 -24 -24 -23 -23 -24 -24 -24 -24 -24 -24 -24 -24 -24 -24 -24 -25 -26 -27 -28 -29 -29 -29 -29 -29 -29 -28 -28 -28 -28 -27 -26 -25 -24 -23 -23 -23 -23 -23 -23 -23 -23 -23
-24 -24 -24 -24 -24 -24 -24 -24 -24 -24 -25 -25 -25 -26 -26 -28 -29 -30 -30 -30 -30 -30 -31 -31 -31 -31 -31 -31 -30 -30 -30 -30 -29 -28 -27 -26 -26 -25 -25 -24 -24 -24 -24
-25 -25 -25 -25 -25 -25 -25 -25 -25 -25 -26 -26 -27 -29 -30 -30 -31 -31 -31 -32 -32 -33 -33 -33 -33 -33 -33 -33 -32 -32 -32 -32 -31 -31 -30 -29 -29 -28 -27 -27 -26 -26 -26
-25 -25 -25 -25 -25 -25 -26 -26 -26 -26 -27 -28 -30 -30 -31 -31 -32 -33 -34 -34 -34 -34 -34 -34 -35 -35 -35 -34 -34 -34 -34 -34 -33 -33 -32 -32 -31 -31 -30 -30 -29 -29 -28
Height
5608 5608 5608 5608 5608 5609 5611 5612 5613 5614 5616 5617 5616 5613 5609 5606 5604 5601 5599 5597 5599 5603 5603 5606 5610 5613 5617 5621 5626 5634 5639 5644 5651 5655 5659 5659 5665 5669 5672 5674 5676 5678 5680
5599 5597 5597 5597 5597 5598 5599 5600 5601 5602 5604 5604 5603 5599 5596 5593 5590 5589 5587 5588 5590 5592 5596 5597 5601 5603 5606 5609 5613 5620 5627 5634 5640 5646 5647 5649 5654 5658 5661 5665 5668 5671 5672
5587 5585 5585 5585 5586 5587 5588 5589 5590 5591 5591 5592 5590 5586 5582 5580 5578 5579 5577 5578 5580 5584 5587 5589 5592 5594 5598 5602 5605 5609 5615 5625 5630 5633 5637 5639 5643 5648 5654 5655 5658 5663 5666
5578 5576 5575 5575 5576 5576 5577 5578 5578 5578 5579 5579 5576 5571 5569 5568 5567 5568 5569 5569 5572 5574 5578 5581 5582 5584 5589 5594 5599 5602 5607 5613 5619 5624 5627 5631 5635 5638 5642 5646 5651 5655 5658
5567 5567 5566 5565 5565 5565 5565 5566 5566 5566 5567 5565 5560 5557 5556 5556 5556 5557 5558 5557 5561 5563 5570 5573 5572 5569 5575 5586 5590 5593 5596 5602 5608 5613 5617 5622 5626 5630 5633 5637 5641 5645 5648
5558 5558 5557 5556 5554 5554 5555 5555 5555 5555 5555 5551 5548 5546 5544 5545 5546 5546 5548 5549 5551 5550 5559 5564 5561 5569 5573 5578 5580 5586 5591 5594 5598 5602 5607 5613 5618 5621 5622 5628 5630 5633 5638
5548 5549 5548 5547 5546 5546 5545 5545 5545 5544 5541 5539 5538 5536 5535 5535 5537 5538 5538 5540 5543 5547 5551 5554 5559 5561 5564 5570 5574 5579 5582 5585 5587 5593 5598 5603 5607 5610 5612 5616 5620 5623 5626
5538 5538 5538 5537 5536 5535 5534 5534 5533 5531 5530 5529 5529 5527 5526 5527 5528 5530 5533 5534 5536 5537 5543 5548 5550 5554 5558 5562 5566 5571 5573 5577 5580 5586 5589 5594 5597 5599 5603 5606 5608 5610 5613
5528 5528 5529 5528 5527 5526 5525 5523 5522 5521 5521 5520 5519 5519 5518 5517 5519 5522 5524 5525 5528 5530 5534 5538 5542 5546 5551 5554 5557 5559 5564 5568 5572 5577 5581 5584 5587 5589 5592 5595 5598 5600 5601
5524 5524 5525 5525 5524 5523 5522 5520 5518 5516 5513 5512 5512 5511 5510 5509 5511 5514 5516 5517 5520 5523 5527 5527 5527 5539 5541 5545 5548 5552 5556 5559 5563 5566 5571 5574 5577 5580 5582 5584 5586 5587 5588
5523 5523 5522 5522 5521 5519 5517 5515 5513 5509 5507 5505 5503 5501 5501 5501 5503 5505 5507 5508 5510 5514 5518 5522 5526 5528 5533 5535 5538 5541 5545 5549 5553 5556 5559 5562 5565 5567 5570 5572 5574 5576 5576
5521 5521 5521 5520 5520 5518 5516 5513 5512 5509 5505 5501 5499 5496 5495 5496 5496 5497 5498 5500 5502 5504 5507 5510 5514 5518 5522 5525 5527 5530 5533 5537 5540 5543 5546 5549 5552 5553 5555 5559 5562 5564 5565
5522 5522 5522 5520 5518 5517 5514 5513 5512 5509 5506 5503 5500 5497 5495 5493 5492 5491 5490 5490 5492 5494 5496 5499 5502 5505 5509 5512 5515 5518 5521 5523 5526 5530 5533 5536 5539 5542 5543 5545 5549 5551 5553
5522 5522 5520 5518 5516 5514 5512 5510 5508 5505 5503 5500 5498 5496 5494 5492 5490 5489 5487 5485 5484 5484 5486 5488 5490 5492 5495 5498 5502 5503 5506 5509 5511 5514 5518 5521 5525 5528 5531 5534 5536 5539 5541
5520 5519 5518 5516 5514 5512 5510 5508 5505 5503 5500 5496 5494 5492 5489 5487 5486 5484 5482 5481 5479 5478 5478 5478 5478 5478 5480 5482 5485 5487 5490 5493 5495 5498 5502 5505 5509 5512 5516 5520 5523 5525 5528
5519 5518 5516 5514 5511 5508 5505 5502 5500 5498 5494 5491 5488 5485 5482 5480 5478 5476 5474 5472 5472 5471 5470 5470 5469 5468 5468 5468 5469 5471 5472 5474 5478 5481 5484 5487 5492 5497 5499 5504 5508 5510 5514
5517 5515 5513 5510 5506 5503 5500 5497 5493 5490 5487 5484 5481 5478 5473 5470 5467 5465 5463 5461 5459 5458 5456 5456 5456 5456 5456 5455 5455 5457 5457 5458 5461 5464 5467 5471 5474 5478 5481 5485 5489 5493 5497
5512 5510 5507 5504 5501 5498 5494 5491 5487 5482 5477 5473 5471 5467 5463 5458 5455 5451 5448 5446 5444 5442 5440 5439 5439 5439 5440 5440 5441 5442 5442 5443 5445 5447 5449 5453 5456 5458 5462 5465 5469 5473 5476
5507 5504 5501 5497 5493 5489 5484 5480 5476 5472 5467 5462 5457 5452 5447 5443 5439 5435 5432 5429 5426 5423 5421 5420 5419 5419 5419 5420 5421 5423 5425 5426 5428 5429 5432 5434 5436 5439 5441 5445 5447 5451 5455
5501 5498 5494 5489 5484 5480 5475 5470 5465 5460 5455 5449 5443 5436 5429 5424 5419 5414 5409 5405 5402 5400 5397 5396 5395 5395 5395 5396 5398 5400 5402 5405 5407 5409 5411 5413 5416 5418 5421 5423 5427 5430 5434
5493 5489 5484 5479 5474 5469 5464 5458 5452 5447 5441 5434 5427 5420 5413 5404 5396 5389 5384 5378 5372 5368 5366 5365 5365 5364 5366 5368 5370 5372 5375 5379 5382 5385 5388 5390 5392 5395 5398 5399 5403 5407 5411
5484 5479 5474 5469 5463 5457 5451 5445 5439 5433 5425 5418 5410 5401 5392 5383 5373 5364 5355 5347 5342 5338 5334 5332 5330 5329 5330 5332 5335 5338 5342 5346 5351 5356 5360 5363 5366 5370 5372 5376 5379 5382 5386
5473 5469 5463 5457 5450 5444 5438 5431 5422 5414 5406 5397 5388 5378 5369 5359 5349 5339 5331 5323 5314 5308 5305 5304 5302 5302 5300 5300 5303 5305 5308 5311 5315 5320 5326 5332 5336 5340 5345 5350 5354 5358 5363
5463 5457 5451 5444 5438 5430 5423 5415 5406 5396 5385 5374 5363 5352 5341 5331 5323 5314 5307 5301 5294 5287 5280 5276 5274 5274 5275 5275 5276 5278 5281 5284 5286 5290 5294 5299 5305 5310 5315 5321 5327 5332 5336
5452 5445 5438 5431 5424 5416 5406 5396 5386 5376 5365 5353 5340 5329 5319 5308 5298 5289 5283 5275 5269 5263 5258 5254 5251 5249 5250 5251 5252 5253 5256 5259 5262 5264 5267 5271 5276 5281 5286 5291 5297 5303 5308
5440 5432 5425 5416 5408 5399 5390 5378 5367 5355 5343 5331 5320 5309 5299 5287 5275 5267 5260 5254 5248 5243 5239 5236 5233 5229 5227 5229 5230 5232 5233 5236 5239 5242 5244 5248 5251 5255 5259 5264 5269 5275 5280
Wind_Speed
29 34 39 42 40 41 43 44 43 44 45 49 45 43 46 48 47 47 45 41 38 38 32 33 36 34 34 39 52 53 51 48 45 42 49 40 44 36 34 33 32 30 26
39 42 42 41 40 42 42 43 44 45 46 47 46 43 45 45 43 41 38 36 38 37 31 33 34 32 41 34 47 45 41 41 42 41 38 39 40 38 36 36 34 31 26
47 51 48 41 38 41 41 42 45 44 47 44 45 43 43 43 42 40 36 37 36 38 35 34 32 31 38 43 42 43 39 39 35 32 39 43 41 39 37 35 34 36 36
53 49 46 41 40 41 40 42 46 47 45 47 45 45 40 39 39 39 39 41 43 38 34 35 29 31 36 45 44 47 42 40 38 41 45 39 38 41 39 37 33 34 35
49 44 41 39 40 41 41 44 45 47 46 43 43 44 38 37 36 38 38 42 41 37 42 33 36 34 30 39 41 39 40 41 44 47 41 40 39 40 40 38 36 33 33
41 41 40 40 42 42 44 44 44 46 47 44 45 39 38 30 32 35 39 31 36 37 39 32 32 33 31 29 31 35 35 37 49 47 44 43 37 38 39 37 39 37 36
42 41 41 41 43 44 45 45 46 48 47 45 41 40 33 27 27 28 31 32 29 34 41 44 36 34 32 26 24 30 33 39 39 41 43 40 39 39 41 41 39 40 40
44 40 39 40 42 42 46 48 49 49 46 40 38 36 33 26 28 32 28 30 29 33 37 36 35 31 36 30 28 34 41 45 45 42 41 41 41 42 43 43 43 43 43
17 18 21 20 21 23 26 31 36 37 34 33 33 32 25 27 27 27 26 28 34 32 36 34 32 31 29 31 36 38 41 41 39 40 40 40 41 43 43 41 41 43 42
12 7 6 6 10 13 12 13 15 20 27 27 27 26 21 22 27 25 24 23 31 34 31 35 33 33 36 35 39 38 41 38 39 40 44 45 43 43 42 42 39 40 39
7 6 11 12 5 7 10 10 14 11 2 10 11 11 17 22 24 30 27 28 26 34 32 38 37 34 41 38 39 40 44 41 42 43 41 41 44 44 42 40 39 39 35
5 4 7 8 8 9 11 12 13 15 20 20 18 12 5 8 16 25 28 28 31 36 36 39 51 43 42 36 42 41 43 47 45 45 44 42 41 41 41 40 41 38 36
8 5 4 4 7 8 10 12 13 16 16 16 16 17 18 20 15 12 16 26 32 38 39 40 44 41 44 43 44 49 51 51 51 49 49 47 46 45 41 41 43 41 38
3 5 6 8 10 12 14 15 18 19 20 19 19 19 19 20 21 22 25 22 19 24 33 44 50 51 52 53 50 51 54 57 56 53 50 50 50 51 47 44 45 44 43
5 7 9 12 14 16 17 19 20 21 23 24 25 25 26 26 26 26 27 29 31 32 28 28 34 39 45 54 55 62 62 59 56 59 58 57 56 55 55 51 47 45 46
6 9 13 17 21 22 22 23 24 24 25 26 28 30 32 32 32 33 34 34 34 35 37 38 39 38 36 41 50 51 51 50 52 54 54 61 62 61 63 59 54 50 49
10 14 19 23 24 23 23 26 29 30 30 31 34 35 37 37 38 39 39 40 40 41 40 41 42 42 44 49 46 44 45 51 55 55 54 57 57 64 63 66 62 59 59
18 21 25 26 27 27 30 32 33 36 40 42 43 44 46 47 47 47 47 47 48 47 47 47 48 49 50 50 50 53 56 52 49 53 57 61 59 61 64 66 66 67 69
22 25 29 30 32 34 35 37 40 44 48 51 53 54 55 54 53 53 53 53 54 56 58 59 58 57 57 57 58 57 56 57 60 61 56 60 62 61 58 62 65 67 69
27 29 32 35 36 37 40 44 47 51 54 56 56 59 62 62 62 63 63 62 61 62 65 66 66 66 64 63 62 63 65 64 62 61 61 64 64 64 62 58 60 60 63
30 33 36 39 41 44 47 50 53 56 57 59 62 65 66 66 68 69 69 70 71 72 72 72 71 71 71 72 72 71 70 69 72 70 67 65 65 66 68 70 69 67 64
34 36 40 43 45 48 51 52 54 58 61 64 65 67 68 69 72 75 78 78 76 75 74 73 72 71 72 74 76 78 82 83 81 78 78 74 71 70 68 69 70 71 71
38 42 45 48 50 50 53 58 61 65 69 71 72 72 74 77 76 72 69 67 68 68 67 66 65 64 64 64 63 64 68 74 79 82 82 82 81 79 77 75 74 74 73
44 47 50 50 51 54 58 63 67 71 74 76 78 79 76 71 67 66 66 65 64 64 65 64 62 60 59 60 61 60 59 60 66 75 80 82 81 82 82 81 80 79 78
48 50 51 52 57 61 66 70 74 76 77 79 77 71 68 68 69 68 64 61 58 55 55 56 57 58 57 56 56 57 57 56 57 60 67 74 80 82 82 82 82 82 80
51 51 53 58 62 66 70 74 77 78 80 75 69 67 68 66 62 59 56 54 53 52 51 51 51 52 52 52 52 53 54 55 54 55 57 59 63 68 74 79 80 80 79
Wind_Direction
289 287 276 269 263 261 259 258 255 256 259 262 272 284 285 278 272 273 272 262 250 252 242 246 248 244 241 243 231 235 241 241 251 251 249 253 249 246 245 243 241 236 239
289 295 292 275 267 261 258 256 259 257 261 271 274 283 287 276 272 271 265 257 251 240 245 246 247 240 240 246 234 227 228 245 249 243 249 246 244 246 244 238 240 235 223
294 295 291 279 268 262 260 259 259 262 262 278 276 284 287 276 269 267 260 250 234 240 242 241 247 243 234 231 225 229 227 236 244 234 247 247 241 246 243 242 238 237 235
293 289 282 273 265 263 260 261 260 263 270 272 285 292 281 271 268 265 258 245 238 242 242 239 244 229 222 226 236 238 233 231 246 234 242 240 236 241 241 238 238 237 241
284 281 278 275 270 268 265 263 264 268 274 278 287 296 277 267 270 265 256 250 243 236 243 236 243 234 237 225 242 249 233 227 236 239 236 234 238 239 240 237 239 239 240
275 276 277 275 273 271 272 268 266 272 278 285 294 289 272 268 267 261 254 249 247 219 243 239 228 242 233 235 235 237 235 243 233 236 241 236 235 236 237 237 240 243 247
274 272 271 271 271 270 271 271 271 276 283 289 292 285 270 262 258 256 263 250 244 228 230 241 232 230 228 226 217 221 230 222 218 231 231 237 235 232 235 238 243 248 250
273 270 269 269 270 273 272 272 274 278 281 284 282 277 270 256 257 259 256 237 236 224 220 236 221 222 218 234 227 232 221 226 230 234 240 238 237 238 239 242 247 250 255
264 272 270 275 276 274 274 276 276 276 272 271 275 265 268 263 254 252 246 248 233 229 219 230 230 222 234 236 242 228 227 228 236 239 241 243 242 245 245 245 250 256 257
276 250 218 230 259 249 251 249 245 255 259 261 262 260 258 242 229 237 235 242 230 225 228 237 218 233 239 233 225 225 228 235 241 244 248 247 246 247 249 251 253 256 262
188 223 261 264 294 358 9 348 353 6 207 215 226 235 241 240 243 242 246 245 240 229 224 223 227 233 230 232 233 238 239 239 240 241 244 250 248 248 249 250 253 255 261
95 109 67 43 10 4 355 351 346 353 351 358 1 357 297 246 240 240 237 240 239 233 230 229 236 231 235 238 230 229 238 241 243 244 247 248 250 250 248 249 250 252 255
63 47 22 360 347 347 351 347 340 340 337 342 339 338 338 336 319 265 249 242 239 235 236 238 236 233 239 246 237 234 239 245 245 244 247 250 252 253 251 248 247 246 250
14 360 12 14 9 2 355 346 338 332 331 329 324 318 316 312 311 311 312 296 265 250 247 243 238 239 238 236 233 241 240 244 244 246 247 250 250 253 253 253 251 248 247
15 12 9 4 356 347 338 333 327 323 320 319 317 314 312 309 305 301 298 297 299 298 289 261 247 243 242 240 240 238 239 235 240 243 247 250 253 256 252 250 250 247 247
360 351 348 344 339 331 326 323 323 322 322 320 317 314 309 305 301 298 295 292 288 284 283 284 286 280 258 245 239 236 235 239 242 242 245 248 249 244 251 249 248 249 251
328 331 332 331 331 330 329 329 329 328 326 322 318 315 311 310 305 298 293 289 286 285 283 281 278 276 277 279 271 250 243 238 236 239 245 242 241 243 246 245 244 246 250
326 331 330 327 325 324 324 325 324 322 320 317 315 313 311 306 301 299 295 289 282 277 276 276 275 275 272 269 267 270 273 266 242 239 241 238 238 235 235 236 240 244 246
324 328 326 324 324 325 323 321 318 319 320 318 316 312 311 306 301 297 294 289 284 278 276 277 275 273 270 268 267 265 263 262 267 265 254 241 239 239 238 239 238 240 244
324 322 323 325 322 321 321 321 320 318 317 316 314 313 312 308 304 300 297 292 287 282 279 277 275 273 270 267 263 262 262 260 258 256 258 262 261 251 244 244 242 241 241
324 323 323 321 321 321 321 320 319 319 318 316 316 314 312 309 305 302 299 296 293 289 286 282 279 274 270 266 263 261 260 259 256 255 254 252 251 252 256 259 257 255 253
322 322 321 321 322 322 321 319 319 319 319 317 315 313 310 307 304 301 299 296 293 290 287 284 282 279 276 272 267 262 258 255 254 252 250 250 250 251 251 250 251 253 256
320 320 321 323 323 320 319 320 320 321 320 318 316 314 310 308 305 302 299 296 293 290 287 283 279 276 273 271 267 263 257 252 249 248 248 248 249 249 248 249 250 251 250
317 318 320 320 321 321 322 322 322 322 321 320 317 315 313 311 306 302 298 295 292 289 286 283 280 276 272 269 267 264 260 256 252 248 246 244 245 245 246 247 247 247 248
316 317 318 319 321 322 323 323 323 322 321 319 318 316 314 310 307 303 301 296 292 287 284 282 280 277 272 269 266 264 261 258 255 252 251 249 247 245 244 245 245 247 247
316 317 319 320 321 322 322 322 323 322 320 319 318 317 315 312 308 305 302 299 295 291 287 283 279 277 275 270 267 264 262 259 257 254 252 251 250 250 249 248 247 247 247